Greenland, AR

12:40 PM CST on February 11, 2016 (GMT -0600)
Drake

Weather History for KFYV - January, 2013

Change the Weather History Date:

Thursday, January 17, 2013

  Actual Average Record
Temperature  
Mean Temperature 34 °F 35 °F  
Max Temperature 48 °F 46 °F 74 °F (1952)
Min Temperature 19 °F 25 °F -4 °F (1997)
Degree Days  
Heating Degree Days 31 30  
Month to date heating degree days 504 510  
Since 1 July heating degree days 2022 2193  
Moisture  
Dew Point 23 °F    
Average Humidity 67    
Maximum Humidity 92    
Minimum Humidity 42    
Precipitation  
Precipitation 0.00 in 0.10 in - ()
Month to date precipitation 0.34 1.59  
Year to date precipitation 0.34 1.59  
Sea Level Pressure  
Sea Level Pressure 30.40 in    
Wind  
Wind Speed 4 mph (North)    
Max Wind Speed 16 mph    
Max Gust Speed 23 mph    
Visibility 10 miles    
Events      
T = Trace of Precipitation, MM = Missing Value Source: NWS Daily Summary

Daily Weather History Graph

Daily Weather History Graph

Search for Another Location

Airport or City:

Trip Planner

Search our weather history database for the weather conditions in past years. The results will help you decide how hot, cold, wet, or windy it might be!

Date:

Astronomy

Jan. 17, 2013 Rise Set
Actual Time 7:25 AM CST 5:28 PM CST
Civil Twilight 6:58 AM CST 5:56 PM CST
Nautical Twilight 6:26 AM CST 6:27 PM CST
Astronomical Twilight 5:55 AM CST 6:58 PM CST
Moon 10:46 AM CST (1/17) No Moon Set
Length of Visible Light 10h 58m
Length of Day
10h 02m
Waxing Crescent, 38% of the Moon is Illuminated
Jan 17
Waxing Crescent
Jan 18
First Quarter
Jan 26
Full
Feb 3
Last Quarter
Feb 10
New

Hourly Weather History & Observations

Time (CST) Temp. Windchill Dew Point Humidity Pressure Visibility Wind Dir Wind Speed Gust Speed Precip Events Conditions
12:53 AM 23.0 °F - 18.0 °F 81% 30.24 in 10.0 mi Calm Calm - N/A   Overcast
1:53 AM 21.9 °F - 18.0 °F 85% 30.25 in 10.0 mi Calm Calm - N/A   Clear
2:53 AM 21.0 °F - 18.0 °F 88% 30.25 in 10.0 mi Calm Calm - N/A   Clear
3:53 AM 21.0 °F - 18.0 °F 88% 30.26 in 10.0 mi Calm Calm - N/A   Clear
4:53 AM 21.0 °F - 17.1 °F 85% 30.28 in 10.0 mi Calm Calm - N/A   Clear
5:53 AM 19.9 °F - 18.0 °F 92% 30.31 in 10.0 mi Calm Calm - N/A   Clear
6:53 AM 19.0 °F - 17.1 °F 92% 30.33 in 10.0 mi Calm Calm - N/A   Clear
7:53 AM 28.0 °F 20.8 °F 21.9 °F 78% 30.37 in 10.0 mi NNW 6.9 mph - N/A   Clear
8:53 AM 34.0 °F 27.2 °F 27.0 °F 75% 30.39 in 10.0 mi North 8.1 mph - N/A   Clear
9:53 AM 39.0 °F 32.3 °F 30.0 °F 70% 30.42 in 10.0 mi North 10.4 mph - N/A   Clear
10:53 AM 43.0 °F 36.8 °F 30.9 °F 62% 30.42 in 10.0 mi North 11.5 mph - N/A   Clear
11:53 AM 43.0 °F 38.2 °F 30.0 °F 60% 30.43 in 10.0 mi NE 8.1 mph - N/A   Clear
12:53 PM 44.1 °F 40.1 °F 30.0 °F 58% 30.42 in 10.0 mi North 6.9 mph - N/A   Clear
1:53 PM 46.9 °F - 28.9 °F 50% 30.42 in 10.0 mi North 6.9 mph - N/A   Clear
2:53 PM 46.9 °F - 28.0 °F 48% 30.42 in 10.0 mi North 11.5 mph 16.1 mph N/A   Clear
3:53 PM 48.0 °F - 27.0 °F 44% 30.43 in 10.0 mi North 8.1 mph - N/A   Clear
4:53 PM 46.0 °F 44.8 °F 26.1 °F 46% 30.45 in 10.0 mi Variable 3.5 mph - N/A   Clear
5:53 PM 33.1 °F 30.0 °F 24.1 °F 70% 30.48 in 10.0 mi North 3.5 mph - N/A   Clear
6:53 PM 30.9 °F - 24.1 °F 76% 30.50 in 10.0 mi Calm Calm - N/A   Clear
7:53 PM 30.0 °F - 24.1 °F 79% 30.50 in 10.0 mi Calm Calm - N/A   Clear
8:53 PM 25.0 °F - 21.9 °F 88% 30.51 in 10.0 mi Calm Calm - N/A   Clear
9:53 PM 25.0 °F - 21.9 °F 88% 30.51 in 10.0 mi Calm Calm - N/A   Clear
10:53 PM 21.9 °F 15.7 °F 19.9 °F 92% 30.51 in 10.0 mi South 4.6 mph - N/A   Clear
11:53 PM 24.1 °F - 21.0 °F 88% 30.53 in 10.0 mi Calm Calm - N/A   Clear